Location: Chamerau
(49.1969°N, 12.7525°E)
Time: 22:41:05
(UTC+00:00)

Okean 1 Rocket - Pass Details

Date: 18 September 2020
Orbit: 605 x 636 km, 82.5° (Epoch: 31 October)

Event Time Altitude Azimuth Distance (km) Brightness Sun altitude
Exits shadow 19:51:20 56° 221° (SW) 757 3.4 -24.8°
Maximum altitude 19:52:09 72° 281° (W) 673 3.2 -24.9°
Drops below altitude 10° 19:56:40 10° 6° (N) 2,035 6.0 -25.5°
Sets 19:58:56 0° 9° (N) 2,948 6.9 -25.8°
